Volver al catálogo

STARLINK-3153

ActivoComunicacionesVLEO
NORAD 49431·PAYLOAD·🇺🇸 United States

Lanzado Nov 13, 2021 desde Cape Canaveral Space Force Station

Loading…

Próximos Pases (próximas 24 horas)

TLE

ActualizadoSource: CelesTrak SupGP

Época: Sep 14, 2026, 21:34 UTC

1 49431C 21104Z   26257.89909722  .00016443  00000+0  48593-3 0  2573
2 49431  53.1583  87.5628 0001336  80.7372 203.9278 15.34374139    16

Sigue STARLINK-3153 en tiempo real con AllMySat

Download on the App Store